When you browse on this site, cookies collect data to enhance your experience and personalize the content and advertising you see.
Visit our Privacy Policy to learn more. By continuing to use the site, you agree to this use of cookies and data.
  • en France
  • Liste des pays
  • À 7 jours
  • Température de l'eau
  • Carte météo
  • Widgets météo
  • user-avatar
    Se connecter

    Météo par heure à Wubao

    Ce jour, 19 Septembre, Jeudi

    Heure Température Précipitation Vent Pression Humidité
    00:00 +28°C° 0 mm 11 m/s 759 mmHg 64%
    01:00 +28°C° 0 mm 10 m/s 758 mmHg 65%
    02:00 +27°C° 0 mm 9 m/s 758 mmHg 66%
    03:00 +27°C° 0 mm 9 m/s 758 mmHg 63%
    04:00 +27°C° 0 mm 10 m/s 758 mmHg 61%
    05:00 +26°C° 0 mm 10 m/s 758 mmHg 58%
    06:00 +27°C° 0 mm 11 m/s 759 mmHg 56%
    07:00 +27°C° 0 mm 11 m/s 759 mmHg 54%
    08:00 +28°C° 0 mm 9 m/s 759 mmHg 52%
    09:00 +29°C° 0 mm 10 m/s 759 mmHg 48%
    10:00 +31°C° 0 mm 10 m/s 759 mmHg 43%
    11:00 +33°C° 0 mm 10 m/s 759 mmHg 38%
    12:00 +33°C° 0 mm 10 m/s 758 mmHg 37%
    13:00 +34°C° 0 mm 11 m/s 757 mmHg 36%
    14:00 +34°C° 0 mm 9 m/s 757 mmHg 36%
    15:00 +33°C° 0 mm 10 m/s 757 mmHg 40%
    16:00 +32°C° 0 mm 10 m/s 757 mmHg 45%
    17:00 +31°C° 0 mm 10 m/s 757 mmHg 49%
    18:00 +29°C° 0 mm 10 m/s 757 mmHg 53%
    19:00 +28°C° 0 mm 10 m/s 757 mmHg 56%
    20:00 +27°C° 0 mm 11 m/s 757 mmHg 60%
    21:00 +27°C° 0 mm 10 m/s 757 mmHg 61%
    22:00 +27°C° 0 mm 10 m/s 758 mmHg 61%
    23:00 +27°C° 0 mm 10 m/s 758 mmHg 62%

    Demain, 20 Septembre, Vendredi

    Heure Température Précipitation Vent Pression Humidité
    00:00 +26°C° 0 mm 9 m/s 757 mmHg 64%
    01:00 +26°C° 0 mm 9 m/s 757 mmHg 65%
    02:00 +26°C° 0 mm 9 m/s 757 mmHg 67%
    03:00 +24°C° 0 mm 8 m/s 757 mmHg 67%
    04:00 +24°C° 0 mm 7 m/s 756 mmHg 68%
    05:00 +23°C° 0 mm 7 m/s 756 mmHg 69%
    06:00 +24°C° 0 mm 7 m/s 757 mmHg 65%
    07:00 +26°C° 0 mm 7 m/s 757 mmHg 61%
    08:00 +27°C° 0 mm 7 m/s 757 mmHg 57%
    09:00 +28°C° 0 mm 6 m/s 757 mmHg 50%
    10:00 +30°C° 0 mm 6 m/s 757 mmHg 42%
    11:00 +33°C° 0 mm 6 m/s 757 mmHg 35%
    12:00 +33°C° 0 mm 6 m/s 756 mmHg 32%
    13:00 +34°C° 0 mm 6 m/s 755 mmHg 29%
    14:00 +35°C° 0 mm 6 m/s 754 mmHg 27%
    15:00 +33°C° 0 mm 7 m/s 754 mmHg 34%
    16:00 +32°C° 0 mm 8 m/s 754 mmHg 41%
    17:00 +31°C° 0 mm 8 m/s 754 mmHg 48%
    18:00 +29°C° 0 mm 8 m/s 755 mmHg 51%
    19:00 +28°C° 0 mm 8 m/s 755 mmHg 54%
    20:00 +27°C° 0 mm 7 m/s 755 mmHg 57%
    21:00 +27°C° 0 mm 7 m/s 755 mmHg 57%
    22:00 +26°C° 0 mm 6 m/s 755 mmHg 57%
    23:00 +26°C° 0 mm 5 m/s 755 mmHg 58%

    Après-demain, 21 Septembre, Samedi

    Heure Température Précipitation Vent Pression Humidité
    00:00 +25°C° 0 mm 5 m/s 755 mmHg 56%
    01:00 +25°C° 0 mm 4 m/s 755 mmHg 55%
    02:00 +25°C° 0 mm 3 m/s 754 mmHg 54%
    03:00 +24°C° 0 mm 3 m/s 754 mmHg 52%
    04:00 +24°C° 0 mm 3 m/s 754 mmHg 50%
    05:00 +24°C° 0 mm 3 m/s 754 mmHg 48%
    06:00 +25°C° 0 mm 3 m/s 754 mmHg 46%
    07:00 +26°C° 0 mm 3 m/s 754 mmHg 44%
    08:00 +27°C° 0 mm 3 m/s 754 mmHg 42%
    09:00 +29°C° 0 mm 3 m/s 754 mmHg 38%
    10:00 +30°C° 0 mm 3 m/s 754 mmHg 35%
    11:00 +33°C° 0 mm 3 m/s 753 mmHg 31%
    12:00 +34°C° 0 mm 3 m/s 753 mmHg 30%
    13:00 +35°C° 0 mm 3 m/s 753 mmHg 29%
    14:00 +36°C° 0 mm 3 m/s 752 mmHg 28%
    15:00 +35°C° 0 mm 3 m/s 752 mmHg 31%
    16:00 +34°C° 0 mm 4 m/s 753 mmHg 34%
    17:00 +34°C° 0 mm 4 m/s 753 mmHg 37%
    18:00 +33°C° 0 mm 4 m/s 753 mmHg 38%
    19:00 +30°C° 0 mm 3 m/s 754 mmHg 40%
    20:00 +29°C° 0 mm 3 m/s 755 mmHg 42%
    21:00 +28°C° 0 mm 3 m/s 755 mmHg 44%
    22:00 +28°C° 0 mm 3 m/s 755 mmHg 46%
    23:00 +27°C° 0 mm 3 m/s 756 mmHg 48%

    22 Septembre, Dimanche

    Heure Température Précipitation Vent Pression Humidité
    00:00 +27°C° 0 mm 3 m/s 756 mmHg 49%
    01:00 +26°C° 0 mm 3 m/s 756 mmHg 50%
    02:00 +26°C° 0 mm 3 m/s 756 mmHg 50%
    03:00 +26°C° 0 mm 3 m/s 756 mmHg 51%
    04:00 +25°C° 0 mm 3 m/s 756 mmHg 52%
    05:00 +25°C° 0 mm 3 m/s 756 mmHg 53%
    06:00 +26°C° 0 mm 3 m/s 757 mmHg 50%
    07:00 +27°C° 0 mm 2 m/s 757 mmHg 48%
    08:00 +28°C° 0 mm 2 m/s 758 mmHg 46%
    09:00 +29°C° 0 mm 2 m/s 758 mmHg 43%
    10:00 +31°C° 0 mm 2 m/s 758 mmHg 41%
    11:00 +33°C° 0 mm 3 m/s 758 mmHg 39%
    12:00 +34°C° 0 mm 3 m/s 758 mmHg 39%
    13:00 +34°C° 0 mm 3 m/s 758 mmHg 39%
    14:00 +35°C° 0 mm 3 m/s 758 mmHg 39%
    15:00 +33°C° 0 mm 3 m/s 758 mmHg 43%
    16:00 +31°C° 0 mm 3 m/s 758 mmHg 48%
    17:00 +30°C° 0 mm 3 m/s 758 mmHg 52%
    18:00 +29°C° 0 mm 3 m/s 758 mmHg 55%
    19:00 +29°C° 0 mm 3 m/s 759 mmHg 57%
    20:00 +28°C° 0 mm 4 m/s 760 mmHg 60%
    21:00 +28°C° 0 mm 4 m/s 760 mmHg 60%
    22:00 +28°C° 0 mm 4 m/s 760 mmHg 61%
    23:00 +28°C° 0 mm 4 m/s 760 mmHg 61%

    23 Septembre, Lundi

    Heure Température Précipitation Vent Pression Humidité
    00:00 +27°C° 0.1 mm 5 m/s 760 mmHg 64%
    01:00 +27°C° 0.1 mm 5 m/s 760 mmHg 66%
    02:00 +26°C° 0.1 mm 6 m/s 760 mmHg 69%
    03:00 +26°C° 0.2 mm 6 m/s 760 mmHg 68%
    04:00 +26°C° 0.2 mm 6 m/s 760 mmHg 67%
    05:00 +26°C° 0.2 mm 6 m/s 761 mmHg 65%
    06:00 +27°C° 0 mm 6 m/s 761 mmHg 62%
    07:00 +27°C° 0 mm 7 m/s 762 mmHg 59%
    08:00 +28°C° 0 mm 7 m/s 763 mmHg 56%
    09:00 +29°C° 0 mm 7 m/s 763 mmHg 54%
    10:00 +30°C° 0 mm 7 m/s 762 mmHg 51%
    11:00 +32°C° 0 mm 8 m/s 762 mmHg 48%
    12:00 +32°C° 0 mm 8 m/s 762 mmHg 48%
    13:00 +32°C° 0 mm 8 m/s 762 mmHg 48%
    14:00 +32°C° 0 mm 8 m/s 761 mmHg 48%
    15:00 +31°C° 0 mm 8 m/s 761 mmHg 51%
    16:00 +29°C° 0 mm 8 m/s 761 mmHg 54%
    17:00 +29°C° 0 mm 8 m/s 761 mmHg 57%
    18:00 +28°C° 0 mm 8 m/s 762 mmHg 58%
    19:00 +27°C° 0 mm 8 m/s 762 mmHg 59%
    20:00 +27°C° 0 mm 8 m/s 763 mmHg 60%
    21:00 +26°C° 0 mm 8 m/s 763 mmHg 61%
    22:00 +26°C° 0 mm 7 m/s 763 mmHg 61%
    23:00 +26°C° 0 mm 7 m/s 763 mmHg 62%

    24 Septembre, Mardi

    Heure Température Précipitation Vent Pression Humidité
    00:00 +24°C° 0 mm 7 m/s 763 mmHg 62%
    01:00 +24°C° 0 mm 7 m/s 762 mmHg 62%
    02:00 +24°C° 0 mm 7 m/s 762 mmHg 62%
    03:00 +24°C° 0 mm 7 m/s 762 mmHg 63%
    04:00 +23°C° 0 mm 7 m/s 762 mmHg 65%
    05:00 +23°C° 0 mm 6 m/s 762 mmHg 66%
    06:00 +24°C° 0 mm 7 m/s 763 mmHg 64%
    07:00 +26°C° 0 mm 7 m/s 763 mmHg 62%
    08:00 +27°C° 0 mm 7 m/s 764 mmHg 60%
    09:00 +28°C° 0 mm 7 m/s 763 mmHg 57%
    10:00 +29°C° 0 mm 8 m/s 763 mmHg 53%
    11:00 +31°C° 0 mm 8 m/s 763 mmHg 50%
    12:00 +32°C° 0 mm 8 m/s 763 mmHg 49%
    13:00 +32°C° 0 mm 8 m/s 762 mmHg 47%
    14:00 +32°C° 0 mm 9 m/s 762 mmHg 46%
    15:00 +32°C° 0 mm 9 m/s 762 mmHg 49%
    16:00 +31°C° 0 mm 9 m/s 761 mmHg 53%
    17:00 +29°C° 0 mm 9 m/s 761 mmHg 56%
    18:00 +28°C° 0 mm 9 m/s 762 mmHg 60%
    19:00 +27°C° 0 mm 9 m/s 762 mmHg 64%
    20:00 +26°C° 0 mm 9 m/s 763 mmHg 68%
    21:00 +26°C° 0 mm 9 m/s 763 mmHg 68%
    22:00 +26°C° 0 mm 8 m/s 763 mmHg 68%
    23:00 +24°C° 0 mm 8 m/s 764 mmHg 68%
    Voir plus